Regional Weather Roundup
Issued by NWS

Home | Current Version | Previous Version | Text Only | Print | Product List | Glossary Off
Versions: 1 2 3 4 5 6 7 8 9 10 11 12 13 14 15 16 17 18 19 20 21 22 23 24 25 26 27 28 29 30 31 32 33 34 35 36 37 38 39 40 41 42 43 44 45 46 47 48 49 50

000
ASUS43 KMKX 260600
RWRWI

WISCONSIN REGIONAL WEATHER ROUNDUP
NATIONAL WEATHER SERVICE MILWAUKEE/SULLIVAN WI
1200 AM CST MON JAN 26 2015

NOTE: "FAIR" INDICATES FEW OR NO CLOUDS BELOW 12,000 FEET WITH NO
SIGNIFICANT WEATHER AND/OR OBSTRUCTIONS TO VISIBILITY.

WIZ001-002-006>008-014>016-023>028-260700-
NORTHWEST WISCONSIN

CITY           SKY/WX    TMP DP  RH WIND       PRES   REMARKS
SUPERIOR ARPT  CLOUDY    19  12  74 S3        29.93F
ASHLAND        MOCLDY    13   7  77 SW5       29.95F WCI   5
6HR MIN TEMP:   6; 6HR MAX TEMP:  16;

HAYWARD        MOCLDY    10   6  84 CALM      29.94F
6HR MIN TEMP:   7; 6HR MAX TEMP:  16;

SIREN          CLOUDY    21  11  66 S7        29.96F WCI  12
CUMBERLAND     MOCLDY    12   9  85 S5        29.97S WCI   4
RICE LAKE      MOCLDY    15  10  80 SE5       29.99F WCI   7
CHETEK         MOCLDY    13  10  86 MISG      29.99S
LADYSMITH      CLOUDY    15   9  77 S6        29.99F WCI   7
EAU CLAIRE     PTCLDY    16   9  74 S6        30.00F WCI   7
6HR MIN TEMP:  16; 6HR MAX TEMP:  22;

MENOMONIE      PTCLDY    18  12  77 CALM      30.01S
NEW RICHMOND   CLOUDY    19  13  78 S6        29.99F WCI  11
OSCEOLA        CLOUDY    21  15  78 S5        30.02S WCI  14
$$

WIZ003>005-009-010-017-018-260700-
NORTH CENTRAL WISCONSIN

CITY           SKY/WX    TMP DP  RH WIND       PRES   REMARKS
MANITOWISH WTR PTCLDY     8   3  80 S3        29.92F
ARBOR VITAE    MOCLDY    11   7  82 CALM      29.93F
WOODRUFF       MOCLDY    11   7  82 CALM      29.93F
RHINELANDER    MOCLDY    12   3  67 S5        29.94F WCI   4
6HR MIN TEMP:   7; 6HR MAX TEMP:  17;

EAGLE RIVER    PTCLDY     6   1  81 CALM      29.94S
LAND O LAKES   PTCLDY     1  -2  88 CALM      29.94S
PHILLIPS       CLOUDY    10   5  80 S3        29.94F
TOMAHAWK       PTCLDY     7   3  86 CALM      29.96F
MEDFORD        MOCLDY     8   3  83 S6        29.96F WCI  -3
MERRILL        PTCLDY    12   6  76 S3        29.98F
$$

WIZ029-030-035-036-043>047-260700-
CENTRAL WISCONSIN

CITY           SKY/WX    TMP DP  RH WIND       PRES   REMARKS
WAUSAU         PTCLDY    12   5  73 E6        29.98F WCI   3
6HR MIN TEMP:  12; 6HR MAX TEMP:  18;

MOSINEE        PTCLDY    12   7  79 S3        30.02R
MARSHFIELD     MOCLDY    13   5  70 S7        29.99F WCI   3
6HR MIN TEMP:  13; 6HR MAX TEMP:  20;

STEVENS POINT  PTCLDY     8   4  85 CALM      30.03S
WAUPACA        PTCLDY    13   8  80 CALM      30.04F
WAUTOMA        NOT AVBL
WISC RAPIDS    PTCLDY    10   4  76 CALM      30.04S
6HR MIN TEMP:  10; 6HR MAX TEMP:  18;

CAMP DOUGLAS   NOT AVBL
$$

WIZ011>013-019>022-031-037>040-048>050-260700-
NORTHEAST WISCONSIN

CITY           SKY/WX    TMP DP  RH WIND       PRES   REMARKS
ANTIGO         CLOUDY     8   3  78 CALM      29.98S
SHAWANO        PTCLDY    12   8  81 CALM      30.05F
OCONTO         PTCLDY     7   5  92 MISG      30.06S
STURGEON BAY   CLEAR     10   7  85 NW5       30.05S WCI   2
6HR MIN TEMP:   9; 6HR MAX TEMP:  16;

GREEN BAY      CLEAR     13   7  77 CALM      30.04F
6HR MIN TEMP:  13; 6HR MAX TEMP:  17;

MANITOWOC      MOCLDY    16  10  79 NW5       30.04S WCI   9
APPLETON       CLEAR     14   5  67 N6        30.04S WCI   5
CLINTONVILLE   PTCLDY    12   7  79 CALM      30.04F
OSHKOSH        PTCLDY    15   6  67 NW6       30.03S WCI   6
6HR MIN TEMP:  14; 6HR MAX TEMP:  18;

$$

WIZ032>034-041-042-053>061-260700-
SOUTHWEST WISCONSIN

CITY           SKY/WX    TMP DP  RH WIND       PRES   REMARKS
LA CROSSE      PTCLDY    21  14  74 S3        30.04S
6HR MIN TEMP:  20; 6HR MAX TEMP:  26;

SPARTA         PTCLDY    16  13  86 CALM      30.05S
VIROQUA        PTCLDY    18  11  75 SE5       30.00S WCI  11
BOSCOBEL       MOCLDY    19  11  70 CALM      30.06S
6HR MIN TEMP:  18; 6HR MAX TEMP:  23;

PRAIRIE DU CHI MOCLDY    18  13  80 CALM      30.06S
PLATTEVILLE    MOCLDY    18  13  81 CALM      30.03S
$$

WIZ056-057-062-063-064-067-068-260700-
SOUTH CENTRAL WISCONSIN

CITY           SKY/WX    TMP DP  RH WIND       PRES   REMARKS
REEDSBURG      PTCLDY    15  10  81 CALM      30.04S
BARABOO/DELLS  PTCLDY    13   9  83 CALM      30.03F
LONE ROCK      NOT AVBL
MINERAL POINT  NOT AVBL
MADISON        PTCLDY    14   9  80 NW3       30.03S
6HR MIN TEMP:  14; 6HR MAX TEMP:  19;

MIDDLETON      PTCLDY    17  12  80 N3        30.04S
WATERTOWN      CLEAR     14  11  85 N5        30.02S WCI   7
MONROE         MOCLDY    16  12  86 N5        30.01S WCI   9
JANESVILLE     PTCLDY    18  12  79 N7        30.02R WCI   8
$$

WIZ051-052-058>065-066-070>072-260700-
SOUTHEAST WISCONSIN

CITY           SKY/WX    TMP DP  RH WIND       PRES   REMARKS
MILWAUKEE      PTCLDY    23  12  62 NE5       30.00F WCI  17
6HR MIN TEMP:  23; 6HR MAX TEMP:  25;

WAUKESHA       CLEAR     14  10  85 NW6       30.02R WCI   5
MILWAUKEE/TIMM PTCLDY    18  12  79 N8        30.02S WCI   7
RACINE         CLEAR     24  13  62 NE8       30.01S WCI  15
6HR MIN TEMP:  23; 6HR MAX TEMP:  26;

BURLINGTON     CLEAR     15  11  83 N8        30.00S WCI   4
KENOSHA        CLEAR     19  12  74 NE7       29.99S WCI  10
6HR MIN TEMP:  17; 6HR MAX TEMP:  24;

FOND DU LAC    CLEAR     15   7  70 N3        30.03S
6HR MIN TEMP:  14; 6HR MAX TEMP:  18;

SHEBOYGAN      CLEAR     14   9  80 N3        30.03R
6HR MIN TEMP:  14; 6HR MAX TEMP:  20;

WEST BEND      PTCLDY    14  10  85 CALM      30.02R
JUNEAU         PTCLDY    14   8  78 N5        30.03F WCI   6
$$

LSZ147-162-260700-
LAKE SUPERIOR

STATION/POSITION TIME  TEMP    WIND        PRES    WAVE
                       AIR SEA DIR/SP/G            HT/PER
                 (UTC) (F)     (DEG/KT/KT) (MB)    (FT/S)
DEVILS ISLAND    0500   20     200/ 11/ 14 1015.9F
PORT WING        0540   19     180/  9/ 12 1014.2F
SAXON HARBOR     0500    9      CALM  /  5 1014.9F
$$

LMZ867-665-643>646-260700-
LAKE MICHIGAN

STATION/POSITION TIME  TEMP    WIND        PRES    WAVE
                       AIR SEA DIR/SP/G            HT/PER
                 (UTC) (F)     (DEG/KT/KT) (MB)    (FT/S)
NORTHPORT PIER   0512   14     190/  1/  8 1017.6S
SISTER BAY       0513    8        CALM       N/A
KEWAUNEE LAKESHO 0500   22      90/  6/ 12 1016.2F
SHEBOYGAN LAKESH 0500   23      70/ 13/ 16 1018.0F
PORT WASHINGTON  0500   18     330/  6/  9 1017.6
MILWAUKEE LAKESH 0500   26      60/ 11/ 14   N/A
KENOSHA   LAKESH 0500   26      70/ 14/ 18 1015.9S
$$

TC  - TEMPERATURE IN CELSIUS
VSB - VISIBILITY IN STATUTE MILES
WCI - WIND CHILL INDEX
HX  - HEAT INDEX



USA.gov is the U.S. government's official web portal to all federal, state and local government web resources and services.